Regional Weather Roundup
Issued by NWS

Home | Current Version | Previous Version | Graphics & Text | Print | Product List | Glossary On
Versions: 1 2 3 4 5 6 7 8 9 10 11 12 13 14 15 16 17 18 19 20 21 22 23 24 25 26 27 28 29 30 31 32 33 34 35 36 37 38 39 40 41 42 43 44 45 46 47 48 49 50
000
ASUS43 KLOT 302103
RWRIL

ILLINOIS REGIONAL WEATHER ROUNDUP
NATIONAL WEATHER SERVICE CHICAGO/ROMEOVILLE IL
400 PM CDT TUE AUG 30 2016

NOTE: "FAIR" INDICATES FEW OR NO CLOUDS BELOW 12,000 FEET WITH NO
SIGNIFICANT WEATHER AND/OR OBSTRUCTIONS TO VISIBILITY.

* THESE STATIONS ARE NOT UNDER NWS QUALITY CONTROL. THEY ALSO MAY NOT
  REPORT WEATHER SUCH AS PRECIPITATION OR FOG.

ILZ001-002-007-009-015-016-024-302200-
NORTHWEST ILLINOIS

CITY           SKY/WX    TMP DP  RH WIND       PRES   REMARKS
MOLINE         PTSUNNY   84  71  65 NW5       30.07F HX  89
STERLING*      CLOUDY    84  72  67 W8        30.08F HX  89
SAVANNA*       RAIN      78  69  73 N21       30.08S HX  80
$$

ILZ003-004-008-010-011-017-018-302200-
NORTH CENTRAL ILLINOIS

CITY           SKY/WX    TMP DP  RH WIND       PRES   REMARKS
ROCKFORD       CLOUDY    77  69  76 N15       30.10R
FREEPORT*      PTSUNNY   77  69  77 N9G20     30.13R
ROCHELLE*      PTSUNNY   81  71  71 NW7       30.08F HX  85
$$

ILZ005-006-012>014-019>023-302200-
NORTHEAST ILLINOIS

CITY           SKY/WX    TMP DP  RH WIND       PRES   REMARKS
CHICAGO-OHARE  PTSUNNY   84  68  58 VRB6      30.06F HX  87
CHICAGO-MIDWAY PTSUNNY   83  68  60 SW14      30.06F HX  86
AURORA         SUNNY     83  70  64 W5        30.08F HX  87
LANSING*       MOSUNNY   83  73  71 W9        30.07F HX  88
JOLIET*        MOSUNNY   84  72  68 W5        30.08S HX  89
WAUKEGAN       LGT RAIN  71  69  93 N12G17    30.08R FOG
DUPAGE AIRPORT PTSUNNY   84  68  58 NW7       30.07F HX  87
KANKAKEE*      MOSUNNY   82  71  70 W6        30.09S HX  85
WHEELING       CLOUDY    83  67  58 W9        30.07S HX  85
MORRIS*        PTSUNNY   83  71  68 W5        30.06F HX  87
ROMEOVILLE*    CLOUDY    82  73  74 W6        30.08S HX  88
NORTHERLY ISL    N/A     83  65  54 SW7         N/A  HX  85
$$

LMZ740>746-302200-
SOUTHERN LAKE MICHIGAN

STATION/POSITION SKY/WX   TEMP    WIND        PRES    VSBY  WAVE
                          AIR SEA DIR/SP/G                  HT/PER
                          (F)     (DEG/KT/KT) (MB)    (MI)  (FT/S)
SOUTHERN BUOY              75 76  200/  8/ 10 1017.9          1/ 3
WILMETTE HARBOR            75 74  160/  8/ 10   N/A           1/ 4
HARRISON CRIB              78      90/  8/  8   N/A
BURNHAM HARBOR             83     210/  2/ 10   N/A
CALUMET HARBOR             79      90/  6/  8 1017.7F
BURNS HARBOR               77      10/  4/  6 1018.6F
MICHIGAN CITY              80     260/  5/  5   N/A
MICHIGAN CITY 6N           77 72  300/  2/  4   N/A           0
ST. JOSEPH                 76 76  260/  6/  8 1018.3F         0
$$

ILZ025>027-034>036-040-047-049-050-058-095>099-302200-
WEST-CENTRAL ILLINOIS

CITY           SKY/WX    TMP DP  RH WIND       PRES   REMARKS
QUINCY         CLOUDY    77  71  82 SW5       30.10F
GALESBURG*     CLOUDY    81  72  74 W8        30.09F HX  85
MACOMB*        CLOUDY    79  74  83 SW3       30.11F HX  83
JACKSONVILLE*  CLOUDY    77  73  88 SW5       30.10F
PITTSFIELD*    LGT RAIN  75  73  94 S5        30.11F
$$

ILZ028>032-037-038-041>044-048-051>054-059>061-302200-
CENTRAL ILLINOIS

CITY           SKY/WX    TMP DP  RH WIND       PRES   REMARKS
PONTIAC        CLOUDY    81  76  84 N5        30.10S HX  87
BLOOMINGTON    CLOUDY    78  71  79 W10       30.11S HX  80
DECATUR        CLOUDY    82  72  71 W7        30.10S HX  87
PEORIA         CLOUDY    81  74  79 W6        30.08F HX  86
LACON*         CLOUDY    81  71  71 W5        30.07S HX  84
LINCOLN*       CLOUDY    78  72  80 W3        30.10R HX  81
SPRINGFIELD    CLOUDY    79  73  82 W6        30.10F HX  82
TAYLORVILLE    LGT RAIN  75  74  96 CALM      30.10S
$$

ILZ033-039-045-046-055>057-062-063-302200-
EAST-CENTRAL ILLINOIS

CITY           SKY/WX    TMP DP  RH WIND       PRES   REMARKS
CHAMPAIGN      MOSUNNY   83  74  74 W10       30.09S HX  89
RANTOUL*       MOSUNNY   83  75  78 NW6       30.09F HX  90
MATTOON        PTSUNNY   87  72  60 NW5       30.06F HX  93
PARIS*         PTSUNNY   86  76  70 CALM      30.07F HX  96
$$

ILZ079-100>102-302200-
SOUTHWEST ILLINOIS

CITY           SKY/WX    TMP DP  RH WIND       PRES   REMARKS
ALTON          CLOUDY    73  72  94 CALM      30.10F
BELLEVILLE     MOSUNNY   74  73  96 NE1       30.08F
CAHOKIA*       CLOUDY    78  73  84 N8        30.09F HX  81
SPARTA*        MOSUNNY   82  72  71 N14G26    30.09R HX  87
$$

ILZ064>066-069>071-074>076-080>082-084>086-088>090-092>094-302200-
SOUTH-CENTRAL ILLINOIS

CITY           SKY/WX    TMP DP  RH WIND       PRES   REMARKS
CARBONDALE     SUNNY     91  71  51 NE5       30.06F HX  97
EFFINGHAM*     MOSUNNY   89  73  59 SW6       30.07S HX  97
MARION         MOSUNNY   91  72  52 S6        30.06F HX  98
MT. VERNON     SUNNY     93  70  46 S5        30.06F HX  99
CENTRALIA*     MOSUNNY   91  74  57 CALM      30.06S HX  99
SALEM*         SUNNY     90  72  56 CALM      30.06F HX  97
METROPOLIS*    MOSUNNY   92  72  51 CALM      30.04F HX 100
$$

ILZ067-068-072-073-078-083-087-091-302200-
SOUTHEAST ILLINOIS

CITY           SKY/WX    TMP DP  RH WIND       PRES   REMARKS
LAWRENCEVILLE  MOSUNNY   90  70  51 VRB5      30.04F HX  95
FLORA*         MOSUNNY   92  73  53 S5        30.05F HX 100
FAIRFIELD*     PTSUNNY   90  73  56 CALM      30.04F HX  98
HARRISBURG*    MOSUNNY   89  73  58 CALM      30.05F HX  97
ROBINSON*      SUNNY     88  73  60 CALM      30.05F HX  96
CARMI*         SUNNY     91  73  55 CALM      30.04F HX  98
$$

ABBREVIATIONS USED IN REMARKS
   TC - TEMPERATURE IN CELSIUS
  WCI - WIND CHILL INDEX
   HX - HEAT INDEX
  VSB - VISIBILITY
$$





USA.gov is the U.S. government's official web portal to all federal, state and local government web resources and services.